GW7317 Weather Reports


time (UTC)temp
C
wind
direction
speed
KPH
gust
KPH
rain 1hr
cm
rain 24hr
cm
rain mn
cm
humidity
%
barometer
mb
20260502170442 22 323 4.8 4.8 0.00 0.00 0.00 45 1021.8
20260502163925 22 272 1.6 6.4 0.00 0.00 0.00 45 1021.7
20260502163421 22 315 3.2 4.8 0.00 0.00 0.00 50 1021.8
20260502162919 22 337 1.6 4.8 0.00 0.00 0.00 50 1021.7
20260502162415 22 284 1.6 9.7 0.00 0.00 0.00 48 1021.7
20260502161912 21 281 0.0 1.6 0.00 0.00 0.00 51 1021.6
20260502161409 21 183 3.2 4.8 0.00 0.00 0.00 52 1021.6
20260502160907 21 295 1.6 6.4 0.00 0.00 0.00 51 1021.6
20260502160405 21 192 1.6 11.3 0.00 0.00 0.00 54 1021.5
20260502151843 19 329 3.2 9.7 0.00 0.00 0.00 59 1021.3
20260502151340 20 314 4.8 6.4 0.00 0.00 0.00 60 1021.4
20260502150837 20 327 1.6 4.8 0.00 0.00 0.00 61 1021.5
20260502150333 19 178 0.0 1.6 0.00 0.00 0.00 63 1021.3
20260502130722 13 338 0.0 0.0 0.00 0.00 0.00 88 1020.2
20260502130219 12 331 0.0 1.6 0.00 0.00 0.00 88 1020.2
20260502123706 11 299 0.0 0.0 0.00 0.00 0.00 93 1019.6
20260502123202 11 299 0.0 0.0 0.00 0.00 0.00 94 1019.7
20260502122658 11 300 0.0 0.0 0.00 0.00 0.00 95 1019.6
20260502122155 11 299 0.0 1.6 0.00 0.00 0.00 95 1019.4
20260502121653 11 299 0.0 1.6 0.00 0.00 0.00 96 1019.5
20260502121151 11 300 1.6 1.6 0.00 0.00 0.00 96 1019.4
20260502120647 11 300 0.0 0.0 0.00 0.00 0.00 96 1019.4
20260502120144 11 300 0.0 0.0 0.00 0.00 0.00 96 1019.3
20260502115642 11 300 0.0 0.0 0.00 0.00 0.00 96 1019.5
20260502115137 11 300 0.0 0.0 0.00 0.00 0.00 96 1019.1
20260502114633 11 300 0.0 0.0 0.00 0.00 0.00 96 1018.9
20260502114131 11 300 0.0 0.0 0.00 0.00 0.00 95 1019.1
20260502113628 11 300 0.0 0.0 0.00 0.00 0.00 95 1019.1
20260502113127 11 300 0.0 0.0 0.00 0.00 0.00 95 1019.0
20260502112624 11 301 0.0 1.6 0.00 0.00 0.00 95 1018.8
20260502112121 11 305 0.0 0.0 0.00 0.00 0.00 95 1019.0
20260502111619 11 305 0.0 0.0 0.00 0.00 0.00 95 1018.8
20260502111116 11 306 0.0 0.0 0.00 0.00 0.00 94 1018.9
20260502110614 11 306 0.0 0.0 0.00 0.00 0.00 94 1018.8
20260502110111 11 320 0.0 0.0 0.00 0.00 0.00 94 1018.8
20260502105609 11 326 0.0 1.6 0.00 0.00 0.00 94 1018.6
20260502105105 11 214 0.0 0.0 0.00 0.00 0.00 93 1018.7
20260502104602 11 214 0.0 0.0 0.00 0.00 0.00 93 1018.8
20260502104100 11 211 0.0 1.6 0.00 0.00 0.00 93 1018.5
20260502103557 11 211 0.0 0.0 0.00 0.00 0.00 93 1018.5
20260502103056 11 211 0.0 1.6 0.00 0.00 0.00 92 1018.4
20260502102551 11 175 0.0 0.0 0.00 0.00 0.00 92 1018.5
20260502102049 11 268 0.0 0.0 0.00 0.00 0.00 92 1018.6
20260502101547 11 268 0.0 1.6 0.00 0.00 0.00 92 1018.4
20260502101045 11 268 0.0 0.0 0.00 0.00 0.00 92 1018.1
20260502100543 11 268 0.0 0.0 0.00 0.00 0.00 93 1017.9
20260502091517 12 268 0.0 0.0 0.00 0.00 0.00 91 1017.1
20260502091015 12 268 0.0 0.0 0.00 0.00 0.00 90 1017.3
20260502090511 12 268 0.0 0.0 0.00 0.00 0.00 90 1017.0
20260502071406 13 312 0.0 1.6 0.00 0.00 0.00 89 1017.1
20260502070904 13 249 1.6 1.6 0.00 0.00 0.00 90 1017.0
20260502070402 13 237 0.0 1.6 0.00 0.00 0.00 90 1017.0
20260502065900 13 273 0.0 1.6 0.00 0.00 0.00 90 1017.1
20260502065358 12 213 0.0 1.6 0.00 0.00 0.00 91 1017.1
20260502064856 12 218 1.6 1.6 0.00 0.00 0.00 90 1017.1
20260502064354 12 292 0.0 9.7 0.00 0.00 0.00 90 1016.9
20260502063850 12 250 1.6 3.2 0.00 0.00 0.00 91 1016.7
20260502063349 12 238 0.0 1.6 0.00 0.00 0.00 92 1016.8
20260502062845 12 212 0.0 3.2 0.00 0.00 0.00 92 1016.7
20260502062343 12 328 1.6 3.2 0.00 0.00 0.00 92 1016.7
20260502061842 12 289 0.0 1.6 0.00 0.00 0.00 92 1016.6
20260502061339 12 327 0.0 1.6 0.00 0.00 0.00 91 1016.5
20260502060835 12 295 1.6 3.2 0.00 0.00 0.00 91 1016.6
20260502060330 13 265 3.2 3.2 0.00 0.00 0.00 91 1016.7
20260502055828 13 225 0.0 3.2 0.00 0.00 0.00 91 1016.7
20260502055326 13 303 3.2 3.2 0.00 0.00 0.00 91 1016.6
20260502054825 13 275 0.0 4.8 0.00 0.00 0.00 91 1016.6
20260502054322 13 280 3.2 3.2 0.00 0.00 0.00 92 1016.6
20260502053820 13 265 1.6 3.2 0.00 0.00 0.00 91 1016.7
20260502053316 13 222 0.0 3.2 0.00 0.00 0.00 92 1016.7
20260502052814 13 314 1.6 3.2 0.00 0.00 0.00 91 1016.7
20260502052312 13 310 1.6 6.4 0.00 0.00 0.00 91 1016.5
20260502051810 13 265 0.0 3.2 0.00 0.00 0.00 91 1016.5
20260502051309 13 227 3.2 4.8 0.00 0.00 0.00 92 1016.6
20260502050804 13 288 3.2 4.8 0.00 0.00 0.00 92 1016.4
20260502050300 13 287 1.6 4.8 0.00 0.00 0.00 92 1016.6
20260502045758 13 298 0.0 4.8 0.00 12.52 12.52 92 1016.5
20260502045254 13 233 1.6 3.2 0.00 12.52 12.52 93 1016.6
20260502044751 13 278 1.6 3.2 0.00 12.52 12.52 93 1016.6
20260502044247 13 23 1.6 3.2 0.00 12.52 12.52 93 1016.5
20260502043745 13 248 1.6 3.2 0.00 12.52 12.52 93 1016.5
20260502043242 13 294 0.0 4.8 0.00 12.52 12.52 93 1016.4
20260502042742 13 315 0.0 4.8 0.00 12.52 12.52 93 1016.3
20260502042239 13 317 0.0 4.8 0.00 12.52 12.52 93 1016.2
20260502041736 13 223 1.6 1.6 0.00 12.52 12.52 93 1016.3
20260502041234 13 310 3.2 3.2 0.00 12.52 12.52 93 1016.2
20260502040731 13 262 1.6 3.2 0.00 12.52 12.52 93 1016.4
20260502040228 13 283 1.6 1.6 0.00 12.52 12.52 93 1016.5
20260502035724 13 301 1.6 1.6 0.00 12.52 12.52 93 1016.6
20260502035220 13 254 1.6 1.6 0.00 12.52 12.52 94 1016.5
20260502034718 13 295 0.0 3.2 0.00 12.52 12.52 94 1016.6
20260502034216 13 1 3.2 3.2 0.00 12.52 12.52 93 1016.7
20260502033714 13 144 1.6 3.2 0.00 12.52 12.52 94 1016.2
20260502033212 13 272 1.6 3.2 0.00 12.52 12.52 94 1016.3
20260502032708 13 10 1.6 6.4 0.00 12.52 12.52 94 1016.2
20260502032203 13 322 6.4 11.3 0.00 12.52 12.52 94 1016.0
20260502031702 13 197 0.0 3.2 0.00 12.52 12.52 94 1016.1
20260502031200 13 202 1.6 11.3 0.00 12.52 12.52 94 1015.8
20260502030658 13 331 0.0 4.8 0.00 12.52 12.52 94 1015.8
20260502030156 13 348 0.0 4.8 0.00 12.52 12.52 94 1015.7
20260502025653 13 329 4.8 4.8 0.00 12.52 12.52 94 1015.9
20260502025150 13 275 1.6 1.6 0.00 12.52 12.52 94 1015.3
20260502024648 13 250 1.6 9.7 0.00 12.52 12.52 94 1015.3
20260502024146 13 268 1.6 3.2 0.00 12.52 12.52 94 1015.0
20260502023644 13 344 3.2 6.4 0.00 12.52 12.52 95 1015.0
20260502023141 13 214 1.6 4.8 0.00 12.52 12.52 95 1014.8
20260502022638 13 212 1.6 3.2 0.00 12.52 12.52 95 1014.7
20260502022135 13 337 3.2 4.8 0.00 12.52 12.52 95 1014.9
20260502021632 13 147 3.2 6.4 0.30 12.52 12.52 95 1015.0
20260502021129 13 293 1.6 6.4 0.13 12.50 12.50 95 1014.7
20260502020627 13 293 1.6 3.2 0.30 12.47 12.47 95 1014.7
20260502020123 13 280 0.0 1.6 0.30 12.45 12.45 95 1014.8
20260502015621 13 329 1.6 1.6 0.30 12.42 12.42 95 1014.6
20260502015117 13 273 1.6 3.2 0.30 12.40 12.40 95 1014.8
20260502014614 13 269 4.8 9.7 0.30 12.37 12.37 95 1014.4
20260502014112 13 273 1.6 1.6 0.13 12.34 12.34 95 1014.8
20260502013607 13 331 1.6 6.4 0.30 12.32 12.32 94 1014.6
20260502013103 14 164 3.2 4.8 0.61 12.29 12.29 95 1014.1
20260502012601 14 311 1.6 3.2 0.97 12.27 12.27 95 1013.8
20260502012059 14 220 1.6 1.6 0.43 12.17 12.17 95 1013.8
20260502011555 15 335 0.0 6.4 0.43 12.12 12.12 95 1013.7
20260502011051 15 267 1.6 3.2 0.48 12.09 12.09 95 1013.6
20260502010549 15 324 0.0 1.6 0.30 12.04 12.04 95 1013.9
20260502010045 15 304 0.0 9.7 0.13 12.01 12.01 96 1014.4
20260502005543 15 314 0.0 1.6 0.00 11.99 11.99 96 1014.6
20260502005040 15 335 0.0 3.2 0.18 11.99 11.99 96 1013.8
20260502004536 15 265 3.2 3.2 0.18 11.99 11.99 96 1012.9
20260502004033 15 333 3.2 4.8 0.00 11.96 11.96 95 1012.7
20260502003531 15 314 4.8 11.3 0.13 11.96 11.96 95 1012.4
20260502003027 15 341 3.2 4.8 0.13 11.96 11.96 95 1012.3
20260502002524 15 285 1.6 3.2 0.00 11.94 11.94 95 1012.8
20260502002021 15 342 0.0 0.0 0.18 11.94 11.94 95 1013.1
20260502001519 15 33 1.6 1.6 0.13 11.91 11.91 95 1013.9
20260502001016 15 44 0.0 1.6 0.48 11.91 11.91 95 1013.4
20260502000514 15 274 1.6 1.6 0.66 11.89 11.89 95 1013.0
20260502000011 15 307 3.2 3.2 0.71 11.84 11.84 95 1013.3
20260501235507 15 195 0.0 1.6 0.89 11.76 11.76 96 1013.7
20260501235002 15 195 0.0 1.6 0.71 11.68 11.68 95 1013.3
20260501234458 15 207 0.0 1.6 0.43 11.63 11.63 95 1013.1
20260501233957 15 236 1.6 1.6 0.00 11.56 11.56 95 1012.6
20260501233454 15 329 0.0 4.8 0.00 11.56 11.56 95 1012.9
20260501232950 15 305 1.6 4.8 0.18 11.56 11.56 94 1012.4
20260501232447 15 307 3.2 4.8 0.18 11.56 11.56 95 1012.2
20260501231944 15 182 1.6 6.4 0.18 11.53 11.53 94 1011.7
20260501231443 15 292 3.2 3.2 0.79 11.53 11.53 95 1011.5
20260501230940 15 140 4.8 6.4 2.16 11.48 11.48 95 1011.4
20260501230439 15 9 3.2 9.7 1.85 11.38 11.38 95 1012.1
20260501225936 15 166 0.0 0.0 0.13 11.07 11.07 94 1012.8
20260501225434 15 161 1.6 4.8 0.43 11.07 11.07 94 1012.8
20260501224930 15 308 1.6 1.6 0.30 11.05 11.05 94 1011.6
20260501224427 15 294 3.2 4.8 0.00 11.00 11.00 94 1011.0
20260501223924 15 185 3.2 4.8 0.00 11.00 11.00 93 1011.4
20260501223420 15 162 1.6 6.4 0.00 11.00 11.00 93 1010.7
20260501222916 16 200 1.6 12.9 0.00 11.00 11.00 93 1010.4
20260501222414 16 191 1.6 6.4 0.00 11.00 11.00 93 1010.6
20260501221910 16 190 3.2 9.7 0.00 11.00 11.00 94 1010.5
20260501221407 16 238 1.6 3.2 0.00 11.00 11.00 94 1010.9
20260501220905 16 312 4.8 6.4 0.00 11.00 11.00 94 1011.2
20260501220402 16 244 1.6 1.6 0.00 11.00 11.00 95 1011.2
20260501215858 16 164 1.6 6.4 0.18 11.00 11.00 94 1011.6
20260501215355 16 263 1.6 4.8 0.30 11.00 11.00 94 1012.0
20260501214850 16 335 0.0 3.2 0.30 10.97 10.97 94 1012.2
20260501214346 16 234 1.6 3.2 0.36 10.95 10.95 94 1011.8
20260501213842 16 206 0.0 3.2 0.30 10.92 10.92 94 1012.1
20260501213339 16 285 1.6 3.2 0.43 10.90 10.90 94 1012.4
20260501212834 16 245 1.6 3.2 0.13 10.85 10.85 94 1012.0
20260501212331 16 263 0.0 1.6 0.00 10.82 10.82 95 1011.9
20260501211828 16 256 1.6 1.6 0.00 10.82 10.82 95 1011.8
20260501211326 16 253 1.6 1.6 0.00 10.82 10.82 95 1011.5
20260501210822 16 185 0.0 4.8 0.18 10.82 10.82 95 1010.9
20260501210319 16 248 1.6 3.2 0.18 10.82 10.82 96 1010.3
20260501205815 16 277 1.6 1.6 0.13 10.79 10.79 95 1010.5
20260501205313 16 160 1.6 1.6 0.30 10.77 10.77 95 1010.5
20260501204810 16 331 0.0 6.4 0.61 10.77 10.77 95 1010.7
20260501204306 16 262 1.6 6.4 0.48 10.72 10.72 95 1010.3
20260501203802 16 259 0.0 1.6 0.30 10.67 10.67 95 1011.4
20260501203300 16 331 1.6 1.6 0.30 10.64 10.64 95 1011.3
20260501202757 16 225 1.6 3.2 0.66 10.62 10.62 95 1010.5
20260501202254 16 177 3.2 4.8 0.61 10.59 10.59 95 1010.4
20260501201750 16 207 1.6 3.2 0.30 10.52 10.52 95 1010.5
20260501201247 16 194 0.0 3.2 0.30 10.49 10.49 95 1010.2
20260501200743 17 317 3.2 6.4 0.61 10.46 10.46 95 1009.6
20260501200241 17 187 1.6 3.2 0.71 10.41 10.41 95 1010.3
20260501195738 17 305 1.6 3.2 0.30 10.34 10.34 95 1011.0
20260501195234 17 286 1.6 3.2 0.18 10.29 10.29 95 1010.6
20260501194730 17 290 1.6 4.8 0.18 10.29 10.29 95 1010.2
20260501194226 17 296 0.0 1.6 0.00 10.26 10.26 95 1010.1
20260501193723 17 302 1.6 1.6 0.00 10.26 10.26 95 1010.1
20260501193222 17 253 0.0 0.0 0.00 10.26 10.26 96 1010.4
20260501192719 17 243 0.0 1.6 0.00 10.26 10.26 96 1010.3
20260501192216 17 263 0.0 1.6 0.18 10.26 10.26 95 1010.1
20260501191713 17 302 0.0 1.6 0.18 10.26 10.26 95 1010.2
20260501191210 17 335 1.6 3.2 0.13 10.24 10.24 95 1010.3
20260501190706 17 36 1.6 1.6 0.13 10.24 10.24 95 1010.6
20260501190202 17 60 0.0 3.2 0.18 10.21 10.21 96 1010.5
20260501185658 17 21 1.6 1.6 0.48 10.21 10.21 96 1010.4
20260501185154 16 183 0.0 4.8 0.30 10.16 10.16 96 1010.1
20260501184650 16 221 0.0 1.6 0.71 10.13 10.13 96 1010.1
20260501184150 16 207 1.6 9.7 1.07 10.11 10.11 96 1010.1
20260501183647 16 206 0.0 3.2 0.66 10.01 10.01 96 1010.5
20260501183144 16 195 0.0 1.6 0.13 9.91 9.91 96 1010.8
20260501182640 16 198 0.0 1.6 0.13 9.91 9.91 96 1010.5
20260501182137 16 151 1.6 6.4 0.18 9.88 9.88 96 1009.1
20260501181634 16 161 0.0 4.8 0.30 9.88 9.88 96 1008.6
20260501181131 16 243 1.6 1.6 0.30 9.86 9.86 95 1008.6
20260501180630 16 326 6.4 9.7 0.30 9.83 9.83 95 1008.8
20260501180125 16 73 0.0 9.7 0.30 9.80 9.80 95 1008.8
20260501175622 16 224 1.6 3.2 0.30 9.78 9.78 95 1009.5
20260501175119 16 153 3.2 9.7 0.30 9.75 9.75 95 1010.6
20260501174616 16 249 0.0 1.6 0.30 9.73 9.73 95 1010.6
20260501174114 16 254 1.6 4.8 0.13 9.70 9.70 95 1010.6
20260501173611 17 161 4.8 4.8 0.00 9.68 9.68 95 1011.0
20260501173107 17 223 1.6 1.6 0.36 9.68 9.68 95 1011.0